Location: Les Chemineaux
(47.3024°N, 1.5104°E)
Time: 05:20:08
(UTC+00:00)

Cosmos 192 - Pass Details

Date: 19 May 2025
Orbit: 695 x 708 km, 74.0° (Epoch: 13 June)

Event Time Altitude Azimuth Distance (km) Brightness Sun altitude
Rises 21:46:27 0° 336° (NNW) 3,115 9.4 -17.2°
Reaches altitude 10° 21:48:47 10° 336° (NNW) 2,192 8.2 -17.4°
Maximum altitude 21:53:44 80° 250° (WSW) 726 4.3 -17.8°
Enters shadow 21:55:57 33° 168° (SSE) 1,178 4.9 -18.0°
